map of CGK home
Great Circle Mapper logo
CGK - Airport
Location
City:  Jakarta, Banten, Indonesia
Near (Alt.):Tangerang
Name:Soekarno-Hatta International Airport
ICAO / IATA:WIII / CGK

Details
Type:Airport (Aerodrome, Airfield)
Use:Public/Civil, International (customs port of entry)
Latitude:607'32"S (-6.125566)
Longitude:10639'21"E (106.655897)
Datum:WGS 1984
Elevation:34 ft (10 m)
Runways:2
Longest:12008 × 197 ft (3660 × 60 m), paved

Time
Time Zone:UTC+7
Local Time:

Weather
METAR:WIII 292330Z VRB04KT 5000 BR FEW022 25/22 Q1012 NOSIG
TAF:WIII 291100Z 2912/3018 01005KT 7000 FEW020CB SCT022
TEMPO 2912/2915 18010KT 4000 TSRA
BECMG 2916/2918 18003KT 3000 HZ
BECMG 2923/3001 VRB03KT 6000 FEW022
BECMG 3003/3005 04010KT 9000 SCT022
TEMPO 3009/3012 FEW022CB
BECMG 3012/3014 VRB03KT 6000

Related Locations
Nearby:
Farthest:SKTJ: 12450 mi / 20037 km
Tunja, CO

Find:

   beyond  
but within

Other Information
Maps:
NOTAMs:
Links:
Sources:

  
flag of Indonesia   

Sectional Chart

Flight Planning
at skyvector.com

Satellite Image

Google Maps Satellite View

 

Copyright © 2004-2014 Karl L. Swartz. All rights reserved.
The Great Circle Mapper name and logo are trademarks of the Great Circle Mapper.
All other trademarks mentioned herein belong to their respective owners.
Please see credits for attibutions and further copyright information.

  Follow gcmap on Facebook Follow gcmap on Twitter

hCard Microformat

Geo Microformat